Hourly Data Report for September 29, 2017

All times are specified in Local Standard Time (LST). Add 1 hour to adjust for Daylight Saving Time where and when it is observed.

EUREKA CLIMATE
NUNAVUT

79°59'21.000" N
85°56'02.000" W
10.00 m
2401199
71613
NEK

Download Data

Hourly Data (September 2017)
Hourly Data Report for September 29, 2017
Temp Definition
°C
Dew Point Temp Definition
°C
Rel Hum Definition
%
Wind Dir Definition
10's deg

Wind Spd Definition
km/h
Visibility Definition
km
Stn Press Definition
kPa
Hmdx Definition


Wind Chill Definition


Weather Definition


TIME
00:00 -16.8 -18.1 90 2 13   101.01   -25 LegendNANA
01:00 -17.0 -18.3 90 2 12   101.06   -24 LegendNANA
02:00 -17.3 -18.5 90 3 11   101.10   -24 LegendNANA
03:00 -15.8 -16.8 91 13 6   101.15   -20 LegendNANA
04:00 -14.9 -16.0 92 11 9   101.19   -21 LegendNANA
05:00 -14.9 -16.0 92 11 10   101.23   -21 LegendNANA
06:00 -14.3 -15.4 92 8 2   101.26   -16 LegendNANA
07:00 -14.0 -15.0 92 11 4   101.27   -17 LegendNANA
08:00 -13.8 -15.0 90 13 4   101.29   -17 LegendNANA
09:00 -13.3 -14.5 90 11 5   101.30   -17 LegendNANA
10:00 -12.8 -14.1 90 12 6   101.33   -17 LegendNANA
11:00 -12.7 -14.8 85 11 4   101.33   -15 LegendNANA
12:00 -14.0 -16.2 84 7 2   101.35   -15 LegendNANA
13:00 -12.6 -14.0 89 10 2   101.37   -14 LegendNANA
14:00 -12.1 -13.7 88 6 1   101.39   -13 LegendNANA
15:00 -11.7 -13.4 87 1 1   101.40   -12 LegendNANA
16:00 -11.6 -13.1 89 1 1   101.42   -12 LegendNANA
17:00 -11.5 -12.8 90 31 2   101.43   -13 LegendNANA
18:00 -11.2 -11.7 96 1 10   101.42   -17 LegendNANA
19:00 -11.6 -12.4 94 1 12   101.42   -18 LegendNANA
20:00 -11.3 -12.3 92 1 10   101.42   -17 LegendNANA
21:00 -10.6 -11.2 95 24 3   101.43   -12 LegendNANA
22:00 -10.9 -11.4 96 23 4   101.45   -13 LegendNANA
23:00 -11.0 -11.5 96 30 4   101.45   -13 LegendNANA

Notes on Data Quality.

Legend

  • E = Estimated
  • M = Missing
  • NA = Not Available
  • ‡ = Partner data that is not subject to review by the National Climate Archives
Date modified: